FW5426 Weather Reports


Display with metric or nautical units.
time (UTC)temp
F
wind
direction
speed
MPH
gust
MPH
rain 1hr
in
rain 24hr
in
rain mn
in
humidity
%
barometer
mb
20260901030201 82 285 14.0 29.0 0.00 0.00 0.00 40 1016.7
20260901025925 82 329 16.0 30.0 0.00 0.00 0.00 40 1016.4
20260901025201 82 261 18.0 31.0 0.00 0.00 0.00 41 1016.4
20260901024701 81 301 18.0 33.0 0.00 0.00 0.00 42 1016.3
20260901024201 81 276 18.0 33.0 0.00 0.00 0.00 44 1016.2
20260901023922 82 220 20.0 38.0 0.00 0.00 0.00 40 1016.2
20260901023918 82 269 19.0 38.0 0.00 0.00 0.00 40 1016.0
20260901023909 81 279 18.0 39.0 0.00 0.00 0.00 43 1016.3
20260901023858 82 294 19.0 39.0 0.00 0.00 0.00 42 1016.0
20260901023848 82 325 19.0 33.0 0.00 0.00 0.00 41 1016.0
20260901021917 82 220 20.0 38.0 0.00 0.00 0.00 40 1016.2
20260901021202 82 250 21.0 40.0 0.00 0.00 0.00 41 1015.8
20260901020700 81 263 22.0 40.0 0.00 0.00 0.00 43 1016.0
20260901020426 82 277 21.0 36.0 0.00 0.00 0.00 43 1016.1
20260901015702 82 240 20.0 36.0 0.00 0.00 0.00 42 1016.1
20260901015425 83 269 19.0 36.0 0.00 0.00 0.00 42 1015.9
20260901014701 84 223 19.0 33.0 0.00 0.00 0.00 40 1015.9
20260901014201 85 250 20.0 34.0 0.00 0.00 0.00 38 1015.8
20260901013701 86 207 17.0 34.0 0.00 0.00 0.00 35 1015.8
20260901013159 91 271 10.0 24.0 0.00 0.00 0.00 29 1015.3
20260901012652 95 234 6.0 10.0 0.00 0.00 0.00 20 1014.6
20260901012147 95 222 6.0 10.0 0.00 0.00 0.00 20 1014.4
20260901011641 95 192 6.0 10.0 0.00 0.00 0.00 20 1014.5
20260901011135 95 230 5.0 9.0 0.00 0.00 0.00 20 1014.4
20260901010635 95 202 4.0 9.0 0.00 0.00 0.00 19 1014.3
20260901010135 95 177 4.0 11.0 0.00 0.00 0.00 19 1014.2
20260901005635 95 180 4.0 11.0 0.00 0.00 0.00 19 1014.2
20260901005135 95 186 4.0 7.0 0.00 0.00 0.00 19 1014.2
20260901004635 96 173 3.0 8.0 0.00 0.00 0.00 18 1014.3
20260901004134 96 202 3.0 8.0 0.00 0.00 0.00 17 1014.3
20260901003633 97 209 2.0 6.0 0.00 0.00 0.00 17 1014.3
20260901003133 97 203 2.0 6.0 0.00 0.00 0.00 16 1014.4
20260901002633 98 292 1.0 7.0 0.00 0.00 0.00 17 1014.4
20260901002133 98 216 2.0 7.0 0.00 0.00 0.00 17 1014.4
20260901001633 98 275 3.0 7.0 0.00 0.00 0.00 17 1014.5
20260901001133 98 248 4.0 8.0 0.00 0.00 0.00 17 1014.4
20260901000633 98 165 5.0 11.0 0.00 0.00 0.00 17 1014.4
20260901000615 98 193 3.0 11.0 0.00 0.00 0.00 17 1014.5
20260831235633 98 229 2.0 5.0 0.00 0.00 0.00 15 1014.5
20260831235132 97 270 2.0 5.0 0.00 0.00 0.00 15 1014.4
20260831234631 97 285 3.0 7.0 0.00 0.00 0.00 15 1014.4
20260831234131 97 198 5.0 11.0 0.00 0.00 0.00 15 1014.4
20260831233632 97 141 6.0 11.0 0.00 0.00 0.00 15 1014.4
20260831233131 98 206 7.0 13.0 0.00 0.00 0.00 14 1014.3
20260831232631 99 235 5.0 13.0 0.00 0.00 0.00 15 1014.2
20260831232131 100 222 3.0 8.0 0.00 0.00 0.00 15 1014.2
20260831231630 100 271 1.0 3.0 0.00 0.00 0.00 13 1014.3
20260831231335 99 163 5.0 12.0 0.00 0.00 0.00 12 1014.4
20260831231328 99 355 3.0 10.0 0.00 0.00 0.00 13 1014.3
20260831230130 99 111 5.0 12.0 0.00 0.00 0.00 15 1014.4
20260831225857 99 205 4.0 11.0 0.00 0.00 0.00 16 1014.4
20260831225130 98 160 3.0 10.0 0.00 0.00 0.00 17 1014.5
20260831224631 98 159 4.0 11.0 0.00 0.00 0.00 17 1014.5
20260831224130 98 239 4.0 11.0 0.00 0.00 0.00 17 1014.5
20260831223857 98 124 3.0 8.0 0.00 0.00 0.00 17 1014.7
20260831223130 99 334 2.0 8.0 0.00 0.00 0.00 16 1014.6
20260831222631 99 36 3.0 11.0 0.00 0.00 0.00 15 1014.7
20260831222131 98 9 5.0 11.0 0.00 0.00 0.00 15 1014.9
20260831221854 98 205 6.0 11.0 0.00 0.00 0.00 17 1014.9
20260831221130 99 182 5.0 9.0 0.00 0.00 0.00 17 1015.0
20260831220630 99 129 6.0 11.0 0.00 0.00 0.00 17 1015.1
20260831220131 99 117 5.0 11.0 0.00 0.00 0.00 17 1015.1
20260831215629 99 108 3.0 9.0 0.00 0.00 0.00 19 1015.2
20260831215131 98 340 4.0 8.0 0.00 0.00 0.00 19 1015.3
20260831214850 98 86 5.0 10.0 0.00 0.00 0.00 18 1015.5
20260831214131 99 102 6.0 14.0 0.00 0.00 0.00 18 1015.6
20260831213630 99 159 5.0 14.0 0.00 0.00 0.00 19 1015.6
20260831213129 99 192 4.0 10.0 0.00 0.00 0.00 19 1015.6
20260831212629 98 252 5.0 10.0 0.00 0.00 0.00 19 1015.8
20260831212123 98 165 5.0 10.0 0.00 0.00 0.00 19 1016.0
20260831211616 98 155 6.0 16.0 0.00 0.00 0.00 20 1016.1
20260831211109 98 220 6.0 16.0 0.00 0.00 0.00 20 1016.0
20260831210832 99 277 5.0 11.0 0.00 0.00 0.00 20 1016.2
20260831210104 99 174 4.0 10.0 0.00 0.00 0.00 20 1016.3
20260831205605 98 152 4.0 7.0 0.00 0.00 0.00 21 1016.5
20260831205104 98 197 4.0 8.0 0.00 0.00 0.00 21 1016.5
20260831204605 97 170 3.0 8.0 0.00 0.00 0.00 21 1016.7
20260831204105 97 173 5.0 12.0 0.00 0.00 0.00 22 1016.8
20260831203821 97 198 5.0 12.0 0.00 0.00 0.00 22 1016.8
20260831203102 97 178 5.0 10.0 0.00 0.00 0.00 22 1016.9
20260831202820 97 154 6.0 10.0 0.00 0.00 0.00 22 1017.0
20260831202103 97 192 4.0 10.0 0.00 0.00 0.00 22 1017.0
20260831201604 96 144 3.0 9.0 0.00 0.00 0.00 22 1017.1
20260831201102 96 320 5.0 10.0 0.00 0.00 0.00 22 1017.2
20260831200602 97 144 6.0 15.0 0.00 0.00 0.00 22 1017.3
20260831195600 96 155 5.0 12.0 0.00 0.00 0.00 23 1017.3
20260831195101 96 129 4.0 9.0 0.00 0.00 0.00 22 1017.4
20260831194556 96 105 5.0 12.0 0.00 0.00 0.00 23 1017.6
20260831194050 96 127 6.0 12.0 0.00 0.00 0.00 23 1017.6
20260831193804 96 146 5.0 10.0 0.00 0.00 0.00 23 1017.6
20260831193038 95 149 4.0 9.0 0.00 0.00 0.00 23 1017.6
20260831192532 95 154 2.0 7.0 0.00 0.00 0.00 23 1017.7
20260831192030 95 46 4.0 13.0 0.00 0.00 0.00 24 1017.6
20260831191754 95 138 5.0 13.0 0.00 0.00 0.00 23 1017.7
20260831191030 95 113 3.0 12.0 0.00 0.00 0.00 23 1017.8
20260831190530 94 150 3.0 8.0 0.00 0.00 0.00 24 1017.9
20260831190030 94 346 3.0 8.0 0.00 0.00 0.00 24 1017.9
20260831185530 94 107 4.0 11.0 0.00 0.00 0.00 24 1018.0
20260831185031 94 200 4.0 11.0 0.00 0.00 0.00 24 1018.0
20260831184752 94 131 4.0 10.0 0.00 0.00 0.00 24 1018.1
20260831184031 94 155 4.0 9.0 0.00 0.00 0.00 24 1018.2
20260831183530 93 173 3.0 8.0 0.00 0.00 0.00 24 1018.2
20260831183032 93 217 2.0 8.0 0.00 0.00 0.00 25 1018.2
20260831182530 92 182 2.0 5.0 0.00 0.00 0.00 25 1018.4
20260831182031 92 355 3.0 9.0 0.00 0.00 0.00 25 1018.4
20260831181531 93 64 3.0 9.0 0.00 0.00 0.00 25 1018.4
20260831181030 93 5 3.0 7.0 0.00 0.00 0.00 25 1018.7
20260831180756 93 194 4.0 7.0 0.00 0.00 0.00 25 1018.7
20260831180029 92 158 3.0 7.0 0.00 0.00 0.00 25 1018.7
20260831175530 92 132 3.0 11.0 0.00 0.00 0.00 26 1018.9
20260831175030 91 152 4.0 11.0 0.00 0.00 0.00 26 1019.0
20260831174530 90 151 3.0 11.0 0.00 0.00 0.00 26 1019.0
20260831174248 91 76 4.0 11.0 0.00 0.00 0.00 26 1019.0
20260831173530 91 42 3.0 10.0 0.00 0.00 0.00 26 1019.0
20260831173030 92 42 1.0 9.0 0.00 0.00 0.00 26 1019.0
20260831172530 91 65 0.0 4.0 0.00 0.00 0.00 26 1019.1
20260831172030 90 215 2.0 11.0 0.00 0.00 0.00 27 1019.1
20260831171530 90 147 4.0 11.0 0.00 0.00 0.00 27 1019.1
20260831171030 90 209 4.0 8.0 0.00 0.00 0.00 27 1019.1
20260831170530 90 234 3.0 8.0 0.00 0.00 0.00 27 1019.2
20260831170030 90 173 2.0 8.0 0.00 0.00 0.00 27 1019.1
20260831165530 90 232 1.0 4.0 0.00 0.00 0.00 27 1019.2
20260831165030 89 220 1.0 5.0 0.00 0.00 0.00 27 1019.2
20260831164530 89 115 1.0 5.0 0.00 0.00 0.00 27 1019.2
20260831164029 89 112 2.0 6.0 0.00 0.00 0.00 27 1019.1
20260831163530 89 210 3.0 7.0 0.00 0.00 0.00 28 1019.2
20260831163026 88 121 3.0 7.0 0.00 0.00 0.00 28 1019.1
20260831162520 88 173 2.0 7.0 0.00 0.00 0.00 28 1019.2
20260831162018 87 140 2.0 7.0 0.00 0.00 0.00 29 1019.1
20260831161740 87 69 2.0 7.0 0.00 0.00 0.00 30 1019.2
20260831161238 86 123 2.0 6.0 0.00 0.00 0.00 30 1019.0
20260831160514 86 141 2.0 7.0 0.00 0.00 0.00 31 1019.0
20260831160014 86 38 2.0 7.0 0.00 0.00 0.00 30 1018.9
20260831155514 85 86 3.0 7.0 0.00 0.00 0.00 31 1019.0
20260831155014 85 101 3.0 7.0 0.00 0.00 0.00 32 1019.0
20260831154514 84 97 3.0 6.0 0.00 0.00 0.00 32 1018.8
20260831154232 84 5 3.0 6.0 0.00 0.00 0.00 32 1018.7
20260831153512 83 59 3.0 6.0 0.00 0.00 0.00 32 1018.7
20260831153012 83 67 4.0 7.0 0.00 0.00 0.00 32 1018.7
20260831152510 83 56 4.0 7.0 0.00 0.00 0.00 33 1018.8
20260831152010 83 65 4.0 8.0 0.00 0.00 0.00 33 1018.8
20260831151508 82 75 4.0 8.0 0.00 0.00 0.00 34 1018.9
20260831151008 82 355 4.0 9.0 0.00 0.00 0.00 34 1018.9
20260831150508 82 62 4.0 9.0 0.00 0.00 0.00 35 1018.9
20260831150005 82 69 4.0 8.0 0.00 0.00 0.00 35 1018.9
20260831145503 81 39 3.0 7.0 0.00 0.00 0.00 35 1018.8
20260831145226 81 61 3.0 7.0 0.00 0.00 0.00 36 1018.8
20260831144504 80 74 3.0 7.0 0.00 0.00 0.00 36 1018.7
20260831144222 80 53 3.0 6.0 0.00 0.00 0.00 36 1018.7
20260831143733 80 38 2.0 6.0 0.00 0.00 0.00 36 1018.7
20260831143004 80 66 2.0 7.0 0.00 0.00 0.00 37 1018.8
20260831142504 79 48 2.0 7.0 0.00 0.00 0.00 37 1018.6
20260831142004 79 76 2.0 5.0 0.00 0.00 0.00 37 1018.4
20260831141504 78 51 2.0 6.0 0.00 0.00 0.00 38 1018.4
20260831141220 78 49 3.0 9.0 0.00 0.00 0.00 38 1018.3
20260831140505 78 55 5.0 11.0 0.00 0.00 0.00 38 1018.1
20260831140003 78 24 6.0 11.0 0.00 0.00 0.00 38 1018.1
20260831135504 78 69 5.0 11.0 0.00 0.00 0.00 38 1018.1
20260831135004 77 48 6.0 11.0 0.00 0.00 0.00 38 1017.8
20260831134504 78 71 5.0 11.0 0.00 0.00 0.00 37 1017.8
20260831134004 78 50 3.0 9.0 0.00 0.00 0.00 38 1017.7
20260831133503 77 309 1.0 4.0 0.00 0.00 0.00 38 1017.3
20260831133004 76 309 1.0 4.0 0.00 0.00 0.00 39 1017.2
20260831132504 76 309 1.0 4.0 0.00 0.00 0.00 39 1017.1
20260831132229 76 309 1.0 4.0 0.00 0.00 0.00 40 1017.3
20260831131504 76 351 1.0 4.0 0.00 0.00 0.00 40 1017.2
20260831131004 75 351 0.0 2.0 0.00 0.00 0.00 40 1017.2
20260831130504 75 344 0.0 3.0 0.00 0.00 0.00 40 1017.2
20260831130001 75 344 0.0 3.0 0.00 0.00 0.00 40 1017.1
20260831125501 75 345 0.0 1.0 0.00 0.00 0.00 40 1017.0
20260831125224 75 345 0.0 1.0 0.00 0.00 0.00 40 1017.0
20260831124501 75 345 0.0 2.0 0.00 0.00 0.00 40 1016.9
20260831124002 76 344 0.0 2.0 0.00 0.00 0.00 40 1016.9
20260831123501 76 345 0.0 2.0 0.00 0.00 0.00 41 1017.0
20260831123001 76 345 1.0 2.0 0.00 0.00 0.00 40 1016.9
20260831122502 76 345 1.0 2.0 0.00 0.00 0.00 40 1016.9
20260831122001 76 345 0.0 2.0 0.00 0.00 0.00 40 1016.9
20260831121502 76 272 0.0 2.0 0.00 0.00 0.00 40 1016.9
20260831121001 76 272 0.0 1.0 0.00 0.00 0.00 40 1016.8
20260831120501 76 272 0.0 0.0 0.00 0.00 0.00 39 1016.9
20260831120001 76 272 0.0 0.0 0.00 0.00 0.00 39 1016.9
20260831115501 76 272 0.0 2.0 0.00 0.00 0.00 39 1016.8
20260831115001 77 272 1.0 2.0 0.00 0.00 0.00 38 1016.9
20260831114501 77 263 1.0 3.0 0.00 0.00 0.00 38 1016.9
20260831114001 77 223 0.0 3.0 0.00 0.00 0.00 38 1016.9
20260831113502 77 109 1.0 3.0 0.00 0.00 0.00 38 1016.8
20260831113001 77 109 1.0 3.0 0.00 0.00 0.00 38 1016.8
20260831112502 77 110 0.0 3.0 0.00 0.00 0.00 38 1016.8
20260831112001 77 112 0.0 3.0 0.00 0.00 0.00 38 1016.8
20260831111728 77 112 2.0 4.0 0.00 0.00 0.00 37 1016.8
20260831111432 78 97 2.0 4.0 0.00 0.00 0.00 37 1016.7
20260831111428 78 96 2.0 4.0 0.00 0.00 0.00 37 1016.8
20260831111417 77 111 3.0 6.0 0.00 0.00 0.00 37 1016.8
20260831111407 77 111 3.0 6.0 0.00 0.00 0.00 37 1016.7
20260831105501 78 96 2.0 4.0 0.00 0.00 0.00 37 1016.8
20260831105001 78 63 2.0 5.0 0.00 0.00 0.00 36 1016.7
20260831104501 78 74 3.0 5.0 0.00 0.00 0.00 36 1016.7
20260831104001 79 60 1.0 3.0 0.00 0.00 0.00 36 1016.7
20260831103501 79 58 0.0 2.0 0.00 0.00 0.00 36 1016.5
20260831103001 79 166 0.0 1.0 0.00 0.00 0.00 36 1016.5
20260831102501 79 166 0.0 1.0 0.00 0.00 0.00 36 1016.4
20260831102001 79 166 0.0 1.0 0.00 0.00 0.00 35 1016.7
20260831101722 79 184 0.0 0.0 0.00 0.00 0.00 35 1016.7
20260831101000 79 202 0.0 0.0 0.00 0.00 0.00 35 1016.7
20260831100501 80 202 0.0 0.0 0.00 0.00 0.00 35 1016.5
20260831100001 80 202 0.0 0.0 0.00 0.00 0.00 34 1016.5
20260831095500 80 202 0.0 0.0 0.00 0.00 0.00 34 1016.5
20260831094954 81 202 0.0 0.0 0.00 0.00 0.00 33 1016.5
20260831094448 81 202 0.0 0.0 0.00 0.00 0.00 33 1016.4
20260831093947 82 202 0.0 1.0 0.00 0.00 0.00 32 1016.4
20260831093446 82 203 0.0 2.0 0.00 0.00 0.00 32 1016.5
20260831092944 82 217 1.0 3.0 0.00 0.00 0.00 32 1016.5
20260831092442 82 191 1.0 3.0 0.00 0.00 0.00 31 1016.5
20260831091942 82 184 1.0 4.0 0.00 0.00 0.00 31 1016.4
20260831091708 82 206 2.0 5.0 0.00 0.00 0.00 31 1016.4
20260831090941 83 160 1.0 5.0 0.00 0.00 0.00 31 1016.4
20260831090439 83 167 0.0 0.0 0.00 0.00 0.00 31 1016.3
20260831085938 83 167 0.0 2.0 0.00 0.00 0.00 30 1016.1
20260831085436 83 136 1.0 2.0 0.00 0.00 0.00 30 1016.2
20260831085158 83 111 1.0 3.0 0.00 0.00 0.00 30 1016.2
20260831084436 84 130 2.0 5.0 0.00 0.00 0.00 29 1016.1
20260831083937 84 128 3.0 6.0 0.00 0.00 0.00 29 1016.1
20260831083436 84 146 3.0 6.0 0.00 0.00 0.00 29 1016.1
20260831082936 85 132 2.0 5.0 0.00 0.00 0.00 29 1016.1
20260831082437 85 131 2.0 4.0 0.00 0.00 0.00 28 1016.0
20260831081936 85 113 1.0 3.0 0.00 0.00 0.00 28 1016.0
20260831081434 85 151 1.0 3.0 0.00 0.00 0.00 28 1016.0
20260831081154 85 120 2.0 5.0 0.00 0.00 0.00 28 1016.1
20260831080434 86 130 2.0 5.0 0.00 0.00 0.00 28 1016.1
20260831075934 86 131 1.0 3.0 0.00 0.00 0.00 28 1016.2
20260831075434 86 209 2.0 7.0 0.00 0.00 0.00 27 1016.1
20260831074935 87 123 2.0 7.0 0.00 0.00 0.00 27 1016.2
20260831074434 87 162 1.0 5.0 0.00 0.00 0.00 27 1016.4
20260831073934 87 225 2.0 5.0 0.00 0.00 0.00 27 1016.3
20260831073434 87 184 3.0 8.0 0.00 0.00 0.00 26 1016.4
20260831072930 87 180 3.0 8.0 0.00 0.00 0.00 26 1016.5
20260831072430 87 163 3.0 9.0 0.00 0.00 0.00 26 1016.5
20260831071929 88 161 4.0 9.0 0.00 0.00 0.00 26 1016.8
20260831071430 88 192 4.0 8.0 0.00 0.00 0.00 26 1016.9
20260831070930 88 218 4.0 8.0 0.00 0.00 0.00 26 1016.9
20260831070430 88 214 4.0 7.0 0.00 0.00 0.00 26 1016.8
20260831065930 88 221 3.0 7.0 0.00 0.00 0.00 26 1016.9
20260831065429 87 213 4.0 9.0 0.00 0.00 0.00 26 1016.9
20260831064930 87 124 5.0 13.0 0.00 0.00 0.00 26 1016.8
20260831064908 87 193 4.0 13.0 0.00 0.00 0.00 26 1016.7
20260831063925 86 254 2.0 9.0 0.00 0.00 0.00 27 1016.8
20260831063426 85 236 3.0 6.0 0.00 0.00 0.00 26 1016.5
20260831062925 85 270 2.0 6.0 0.00 0.00 0.00 26 1016.8
20260831062425 86 272 1.0 4.0 0.00 0.00 0.00 26 1016.7
20260831061925 86 144 2.0 4.0 0.00 0.00 0.00 26 1016.5
20260831061424 85 113 3.0 6.0 0.00 0.00 0.00 26 1016.5
20260831060922 85 117 3.0 6.0 0.00 0.00 0.00 26 1016.5
20260831060649 85 105 3.0 6.0 0.00 0.00 0.00 26 1016.7
20260831055921 85 93 3.0 6.0 0.00 0.00 0.00 26 1016.5
20260831055421 84 108 4.0 7.0 0.00 0.00 0.00 26 1016.5
20260831055144 84 87 4.0 9.0 0.00 0.00 0.00 26 1016.5
20260831054420 84 77 3.0 9.0 0.00 0.00 0.00 26 1016.5
20260831053917 85 68 1.0 7.0 0.00 0.00 0.00 26 1016.5
20260831053416 85 65 1.0 2.0 0.00 0.00 0.00 26 1016.4
20260831052914 86 65 1.0 2.0 0.00 0.00 0.00 26 1016.4
20260831052411 86 65 0.0 1.0 0.00 0.00 0.00 26 1016.4
20260831051910 86 65 0.0 2.0 0.00 0.00 0.00 25 1016.3
20260831051407 87 66 0.0 2.0 0.00 0.00 0.00 26 1016.4
20260831050905 87 66 0.0 2.0 0.00 0.00 0.00 26 1016.4
20260831050405 87 66 0.0 1.0 0.00 0.00 0.00 26 1016.3
20260831045906 87 72 0.0 1.0 0.00 0.00 0.00 27 1016.4
20260831045405 87 84 0.0 1.0 0.00 0.00 0.00 26 1016.4
20260831044905 87 84 0.0 2.0 0.00 0.00 0.00 26 1016.4
20260831044401 88 88 0.0 2.0 0.00 0.00 0.00 25 1016.4
20260831043902 88 212 0.0 0.0 0.00 0.00 0.00 25 1016.3
20260831043402 89 226 0.0 0.0 0.00 0.00 0.00 24 1016.4
20260831042901 89 226 0.0 0.0 0.00 0.00 0.00 24 1016.3
20260831042542 90 244 0.0 0.0 0.00 0.00 0.00 23 1016.2
20260831042534 89 245 0.0 0.0 0.00 0.00 0.00 23 1016.2
20260831042312 90 244 0.0 1.0 0.00 0.00 0.00 23 1016.1
20260831040901 90 229 0.0 1.0 0.00 0.00 0.00 23 1016.1
20260831040402 90 222 0.0 2.0 0.00 0.00 0.00 22 1016.1
20260831035902 91 227 1.0 2.0 0.00 0.00 0.00 22 1016.1
20260831035624 91 227 0.0 2.0 0.00 0.00 0.00 22 1016.1
20260831034901 91 236 0.0 2.0 0.00 0.00 0.00 21 1016.0
20260831034632 91 225 0.0 2.0 0.00 0.00 0.00 21 1016.1
20260831033901 91 205 1.0 3.0 0.00 0.00 0.00 21 1015.9
20260831033402 91 225 1.0 3.0 0.00 0.00 0.00 21 1015.9
20260831032902 92 219 2.0 3.0 0.00 0.00 0.00 21 1015.9
20260831032401 92 194 2.0 4.0 0.00 0.00 0.00 21 1015.6
20260831031901 92 177 1.0 4.0 0.00 0.00 0.00 21 1015.6
20260831031401 92 203 1.0 2.0 0.00 0.00 0.00 21 1015.6
20260831030902 92 217 1.0 3.0 0.00 0.00 0.00 20 1015.6